User: anonymous
Location: Columbia
(38.9520°N, 92.3340°W)
Time: 21:35:19
(UTC-05:00)
Language:

Cosmos 1633 - Orbit

View from above orbital plane
View from above orbital plane
View from above satellite
View from above satellite

Ground track
Ground track

The orbit data is extracted from the following two-line orbital elements,

1 15592U 85020A   14208.83458781  .00003173  00000-0  15002-3 0  5054
2 15592 082.5417 291.0593 0015965 289.6184 210.2279 15.18932552603456
Epoch (UTC): 27 July 2014 20:01:48
Eccentricity: 0.0015965
inclination: 82.5417°
perigee height: 498 km
apogee height: 520 km
right ascension of ascending node: 291.0593°
argument of perigee: 289.6184°
revolutions per day: 15.18932552
mean anomaly at epoch: 210.2279°
orbit number at epoch: 60345

The dashed part of the orbit path shows where the satellite is in the earth's shadow,  

DLR